Theta_e
348 347 346 344 344 342 342 341 341 341 341 341 340 338 337 339 340 339 337 351 348 349 350 353 355 358 359 356 356 357 356 355 354 352 351 349 350 350 350 350 350 350 350
352 348 349 347 345 344 342 341 341 341 341 340 339 342 342 345 347 349 349 345 350 349 351 353 356 359 360 360 358 357 355 353 354 354 351 350 349 349 350 350 350 350 349
357 357 351 350 348 349 350 349 348 347 345 343 344 344 345 347 347 350 351 350 350 350 351 353 355 358 359 360 361 358 355 353 353 352 352 350 350 349 349 350 350 350 349
359 358 353 352 354 355 352 350 350 348 347 345 345 343 342 344 346 348 350 350 349 350 352 353 353 354 357 359 360 360 356 353 351 350 350 351 350 349 348 348 348 348 348
357 357 354 354 358 355 354 352 350 350 345 345 343 345 347 348 350 348 349 351 353 353 351 353 351 350 352 355 358 359 358 355 352 351 350 350 350 350 349 348 348 347 347
354 355 355 357 357 354 350 348 350 349 348 347 345 346 349 350 351 350 351 351 352 354 353 353 352 350 348 351 353 355 358 357 354 353 350 349 349 350 349 349 348 347 347
356 356 353 355 356 351 351 353 352 350 349 352 348 347 348 352 352 351 349 349 350 351 351 351 351 349 347 349 350 352 355 359 357 355 351 348 348 349 349 349 348 347 346
356 354 354 353 356 349 354 354 353 349 348 350 345 342 335 337 344 349 348 347 348 347 347 348 349 348 348 346 349 349 351 353 356 355 353 348 348 348 349 349 348 348 346
350 352 352 352 355 355 351 352 350 347 341 344 349 341 328 324 330 340 347 347 349 346 346 346 350 349 351 347 344 344 349 350 353 356 355 351 349 350 349 349 348 347 347
349 349 352 354 355 350 349 346 345 344 345 336 338 342 343 339 330 323 331 342 347 347 352 347 347 350 347 345 345 344 341 344 348 352 354 354 352 351 350 349 347 346 347
354 354 354 349 348 342 344 342 342 343 335 335 330 332 337 335 337 334 328 329 331 334 339 342 344 344 350 345 344 341 340 339 341 343 346 347 350 350 349 348 346 346 346
343 345 342 344 344 341 340 338 340 340 338 335 330 331 330 328 326 326 325 329 330 333 333 335 340 340 343 343 343 338 336 335 334 334 337 339 344 345 347 347 347 346 346
337 341 342 341 338 340 339 338 339 337 336 333 335 329 328 328 330 328 326 324 324 327 329 332 334 337 339 343 344 338 338 331 329 328 329 331 335 337 339 340 341 343 347
335 342 340 340 338 337 336 336 331 329 331 330 331 332 327 326 326 327 327 327 322 325 326 335 332 333 336 337 339 336 340 330 327 324 324 325 328 330 332 334 335 338 339
334 340 338 337 336 334 333 332 326 327 328 329 329 329 328 326 326 327 327 327 323 317 319 326 325 336 334 336 339 341 342 334 328 324 322 322 323 325 326 327 329 330 331
337 337 336 336 335 333 331 331 325 327 327 324 323 326 327 325 326 326 326 326 325 323 317 324 324 333 338 335 337 341 340 331 328 324 323 321 320 321 322 323 323 324 326
338 335 334 333 331 329 330 330 328 325 323 324 325 323 324 326 323 322 323 323 323 323 320 324 326 331 339 338 337 340 339 341 339 324 324 322 319 319 320 320 321 322 323
335 333 331 328 326 326 327 326 325 323 322 322 322 322 321 319 324 325 321 327 323 327 322 322 326 327 333 336 338 337 337 338 339 327 323 321 319 318 318 318 318 317 317
330 330 328 326 325 324 324 324 324 323 322 321 321 321 320 321 321 320 321 320 319 319 321 320 321 324 327 330 331 335 336 340 338 326 322 322 321 321 318 316 314 313 311
325 325 326 325 324 324 323 323 322 322 324 322 324 322 321 320 320 321 319 320 320 319 319 318 319 320 324 329 328 328 329 332 335 335 328 324 321 317 316 313 312 312 310
321 321 321 321 322 321 320 322 323 325 326 325 326 323 324 321 317 318 316 319 320 314 312 313 314 318 319 321 324 327 328 328 332 334 331 329 326 327 325 315 318 316 311
317 317 317 317 317 316 308 305 312 320 322 324 324 324 324 319 316 311 311 311 313 315 315 313 314 319 320 319 325 325 323 321 322 331 331 327 329 326 325 324 318 313 310
314 314 314 313 314 317 305 303 305 316 317 320 322 323 320 317 317 317 310 309 309 308 309 318 317 318 320 322 326 325 324 321 324 327 327 323 326 324 325 323 313 312 309
310 310 310 310 310 311 302 299 301 312 314 315 317 319 320 320 320 317 315 314 315 314 317 319 322 322 326 328 327 326 324 319 319 320 321 314 319 321 323 326 310 310 307
308 308 308 309 309 309 301 298 301 308 308 309 310 313 316 316 309 300 313 313 313 314 309 307 306 304 303 303 314 319 312 313 313 315 320 319 321 321 322 323 328 311 309
306 306 306 308 305 306 299 296 298 302 301 302 305 306 303 307 303 299 311 312 309 311 312 317 322 312 306 316 306 323 315 310 312 316 324 320 320 321 318 326 329 331 328
Wind_Speed
8 8 7 6 6 6 6 6 6 6 7 8 9 9 9 9 9 7 6 12 10 12 13 12 13 13 14 16 17 17 17 16 17 17 16 17 16 16 16 16 15 14 13
8 8 8 8 7 7 6 6 6 6 7 7 8 10 10 9 10 9 7 6 12 12 13 13 13 13 13 15 16 17 17 16 17 18 17 18 18 17 17 17 16 15 15
9 9 8 7 7 6 7 7 7 8 8 8 9 9 10 11 10 9 8 7 7 15 14 13 13 12 12 14 16 18 17 17 18 18 18 18 19 18 18 18 17 17 16
11 10 8 8 7 6 7 7 7 7 8 8 8 8 9 10 11 11 10 8 7 7 11 14 12 12 13 15 17 20 18 18 18 18 19 19 19 18 18 18 18 18 16
13 10 8 8 8 8 8 8 7 7 8 8 9 9 9 9 10 10 10 9 9 8 8 9 12 13 15 17 18 20 20 19 18 18 20 19 19 19 19 18 18 18 18
12 8 8 8 8 7 7 7 6 7 8 8 9 9 9 10 10 10 10 10 11 10 11 11 10 12 22 20 18 20 21 20 18 18 19 20 19 19 19 19 19 20 19
12 10 6 10 9 8 7 5 7 8 8 8 9 10 11 11 12 11 10 11 12 13 14 13 11 10 9 16 15 15 18 19 18 16 20 19 19 18 19 20 21 19 19
11 10 7 7 7 6 8 8 8 8 6 5 7 8 9 8 9 11 9 10 13 13 12 13 12 13 12 11 11 16 16 19 20 18 17 18 19 18 18 19 18 17 18
10 10 11 9 7 7 6 7 7 6 6 7 7 7 7 9 11 5 10 12 11 11 12 14 15 16 14 13 13 15 14 15 19 21 17 18 19 17 17 18 15 16 17
10 9 8 8 7 6 4 5 5 5 8 8 6 6 11 11 8 11 12 9 12 14 14 14 15 14 13 11 14 12 10 14 19 22 21 18 17 16 15 15 14 13 13
8 8 9 8 7 4 4 4 5 6 5 7 8 7 8 9 10 9 12 13 14 13 11 11 12 13 13 12 12 12 12 14 18 13 12 14 16 16 15 16 14 13 14
7 7 8 7 6 5 6 6 5 6 6 7 8 7 8 8 9 11 13 13 15 12 13 12 12 13 13 12 11 12 8 11 13 14 13 11 12 13 15 15 14 15 17
8 8 8 8 7 7 6 5 5 5 6 8 8 9 9 10 10 11 12 13 14 13 13 14 14 13 11 10 12 9 11 13 14 15 15 12 12 12 14 17 15 12 17
9 11 10 9 9 8 7 7 6 6 5 7 9 9 10 10 10 11 10 9 11 13 14 16 12 14 14 13 9 8 14 10 13 14 15 13 14 14 16 16 12 12 13
8 11 11 10 10 10 9 7 7 6 7 8 8 9 10 10 10 10 9 8 9 10 12 14 15 15 13 14 8 10 13 12 14 16 14 14 14 14 14 13 11 12 13
9 11 12 12 11 11 10 9 7 9 9 8 8 8 9 10 10 9 10 11 11 11 12 13 15 14 13 14 13 13 15 10 12 16 16 15 15 14 14 13 12 12 15
9 10 11 11 12 12 11 11 11 10 11 11 11 11 12 13 10 11 11 11 12 12 14 13 14 15 14 15 15 14 15 13 11 18 19 16 15 14 13 14 15 14 12
8 10 11 13 13 13 13 13 14 13 14 14 14 14 14 11 12 12 12 13 13 12 13 17 15 15 15 14 15 15 12 13 11 8 14 13 13 12 14 14 11 9 10
8 10 12 13 14 14 15 15 16 17 17 17 17 16 15 15 13 12 13 13 13 13 13 15 14 13 14 12 13 13 12 12 11 11 10 10 11 13 10 9 9 9 11
10 11 13 14 15 16 17 18 19 19 18 19 18 18 17 17 16 15 14 14 13 13 14 14 15 15 13 13 12 11 12 11 9 10 9 4 12 11 10 10 11 13 13
11 13 14 16 17 17 16 20 20 19 19 19 18 19 18 19 18 15 13 13 13 14 15 15 15 14 15 14 12 11 11 12 11 11 9 9 9 9 10 12 11 15 13
14 15 16 18 19 16 17 11 14 18 20 20 19 19 19 18 16 14 15 16 16 15 17 16 15 14 17 11 14 13 9 8 12 10 13 11 10 9 8 9 8 10 11
16 17 18 20 21 20 15 15 15 18 20 20 20 19 19 18 18 21 19 20 19 21 22 19 20 17 18 16 15 13 12 9 10 6 10 13 8 9 8 7 10 7 2
17 17 18 20 20 18 15 12 12 19 20 22 21 21 21 22 20 19 19 19 19 17 16 14 18 18 17 16 15 11 9 3 3 2 2 4 6 8 7 6 11 8 3
17 17 18 20 20 19 15 9 10 17 18 20 20 21 21 20 17 11 18 19 19 16 14 16 19 19 14 13 14 5 4 5 3 6 5 9 7 7 6 7 8 11 7
17 15 17 17 18 18 13 13 9 7 13 12 15 19 21 17 13 10 15 18 19 16 16 18 17 10 11 13 14 12 7 6 6 5 10 10 5 5 7 6 6 9 7
Wind_Direction
196 198 205 220 212 210 207 225 228 231 235 240 253 253 260 270 273 270 276 164 204 246 249 246 247 248 243 239 233 227 230 226 228 229 227 229 227 228 230 227 225 224 222
187 200 200 211 218 220 224 231 231 243 247 257 251 253 259 260 258 266 273 271 192 219 245 251 246 245 238 233 226 227 225 225 230 232 225 228 228 227 226 232 228 226 224
199 220 213 214 216 217 232 231 235 232 245 247 247 253 256 252 257 250 254 259 253 196 214 233 250 248 238 233 230 234 230 222 227 230 229 223 225 226 226 229 230 228 227
225 207 227 218 215 217 226 238 238 242 247 251 256 262 261 261 258 249 249 254 259 280 200 209 226 247 246 240 236 239 233 230 224 223 230 226 221 223 224 226 229 230 230
209 222 226 225 220 223 228 235 245 247 258 257 258 251 251 258 257 253 258 252 245 250 258 181 211 231 240 242 241 238 235 229 227 219 223 229 224 218 222 222 226 227 228
215 209 210 231 225 241 245 245 242 253 267 279 279 277 269 266 258 253 244 237 237 229 234 234 226 231 224 228 234 241 245 236 222 221 223 224 219 219 217 220 222 224 226
220 213 173 203 225 227 228 236 242 236 253 249 265 265 251 243 248 254 250 246 232 217 216 216 217 229 233 213 233 238 244 250 242 225 217 220 212 215 219 217 222 222 226
209 214 215 206 207 208 215 218 226 254 253 268 276 293 274 261 235 236 256 262 253 247 228 240 254 261 261 263 248 213 232 241 247 245 226 219 212 207 217 222 224 223 227
209 207 203 214 200 230 222 199 198 216 255 238 218 276 282 277 309 237 215 251 253 252 262 259 251 260 261 259 267 256 211 229 244 245 229 207 209 206 212 223 220 222 224
206 206 215 215 207 208 216 202 210 246 218 263 226 232 258 286 290 287 285 241 248 256 260 268 272 259 263 264 256 267 290 227 236 241 232 207 194 201 210 214 209 214 220
199 194 189 184 187 219 186 234 200 221 247 260 281 269 247 266 262 273 284 277 285 277 258 259 280 288 285 266 266 264 224 230 240 251 263 234 200 197 212 219 213 206 224
177 187 172 170 177 204 201 208 212 226 259 287 287 279 257 260 273 275 271 263 264 268 280 289 294 287 282 276 265 264 260 221 220 230 236 244 212 215 212 219 223 218 235
174 167 181 181 187 204 199 216 208 248 249 268 276 278 278 275 263 270 276 279 293 291 289 288 289 283 280 285 288 263 262 217 207 216 223 209 221 222 228 231 219 221 232
179 169 186 188 198 197 202 203 220 237 267 255 267 271 283 282 286 287 297 296 288 288 286 283 274 278 284 286 297 281 278 238 213 219 230 216 219 221 226 229 212 217 231
170 177 188 192 200 204 212 211 243 241 249 251 263 261 268 275 277 279 281 281 276 284 279 285 288 293 289 287 308 295 295 273 220 224 230 224 223 218 219 224 214 215 228
189 183 196 201 207 215 220 220 243 228 237 247 254 259 261 270 273 265 263 264 260 260 274 277 279 288 294 293 287 277 276 272 242 222 222 222 218 216 214 224 223 225 226
201 203 211 216 223 227 227 227 242 254 239 239 246 251 253 260 264 273 276 273 269 269 270 272 281 283 277 279 285 289 286 271 261 203 211 214 212 208 212 223 226 218 224
227 237 234 234 237 238 238 236 240 249 239 240 244 247 254 257 259 260 265 268 278 287 285 289 286 290 283 287 287 278 276 281 272 188 189 202 203 204 210 218 222 226 233
258 256 254 253 252 253 254 249 249 250 252 253 251 252 255 257 260 264 272 279 279 278 280 278 284 281 283 291 286 276 267 268 274 136 179 196 206 202 196 201 216 226 234
267 262 260 263 264 265 264 262 258 256 251 251 252 253 256 257 259 259 260 265 270 271 274 275 278 278 280 284 280 273 269 246 261 241 197 171 188 193 198 199 216 222 230
274 272 271 268 267 264 259 256 255 254 255 257 255 253 252 250 253 257 260 263 279 280 277 275 275 287 284 280 277 279 268 275 263 258 230 199 202 206 207 217 238 221 217
284 281 275 270 268 264 266 255 262 267 266 267 260 252 251 239 230 223 243 252 257 272 273 272 272 265 272 271 274 277 269 271 270 234 240 230 202 214 221 227 143 132 196
278 275 274 273 271 270 266 258 250 265 264 262 262 261 259 254 233 241 226 226 232 232 240 259 268 270 274 276 274 270 262 251 256 276 213 241 212 225 223 205 153 152 234
278 276 276 277 277 276 273 264 258 274 271 270 270 264 259 256 252 250 251 251 260 271 269 254 257 263 269 270 267 259 260 233 307 266 236 255 234 220 215 224 145 147 216
281 278 277 279 279 281 281 264 272 279 276 277 275 268 262 254 252 231 244 251 261 269 272 250 255 265 258 250 253 165 167 188 185 242 213 251 190 217 211 223 161 167 182
284 284 285 285 286 290 310 313 294 284 266 265 271 273 274 264 247 219 239 249 259 265 277 281 269 242 236 230 193 192 170 188 226 195 211 231 177 210 210 190 195 167 172